Find Starlink 1302

NORAD ID: 45375 Int'l Des: 2020-019 Owner: SPXS Country: US Constellation: starlink operational
LEOCIRCULAR

現在のビュー

3D地球を読み込み中...

About Starlink 1302

Starlink 1302 (NORAD 45375) is a starlink constellation satellite (v1.0) launched Mar 18, 2020 by SPXS of US. It operates in LEO, CIRCULAR orbit with a mass of 260.00 kg.

次回通過

Passes for default location (London). Set your location on the main map for personalized predictions.

高度履歴

Loading altitude history...

軌道要素

1 45375U 20019R 26264.30452142 .00072085 00000-0 39008-3 0 9992
2 45375 53.0390 267.9261 0006995 51.2382 308.9262 15.79425492360624
Epoch: Sep 21, 2026 • Age: 11 hours

現在のステータス

高度 328.8 km
遠地点 / 近地点 N/A
速度 7.71 km/s
衛星直下点 6.67°N, 0.48°E
打ち上げ日 Mar 18, 2020
運用期間 6.5 years
タイプ internet

技術仕様

分類 Payload
質量 260.00 kg
乾燥質量 248.00 kg
長さ 0.20 m
スパン 9.00 m
形状 ? Box + pan
製造者 SPXS
バスタイプ Starlink
フェーズステータス In Orbit
所有者/国 SPXS/US

Most Searched